FW2111 Weather Reports


Display with metric or nautical units.
time (UTC)temp
F
wind
direction
speed
MPH
gust
MPH
rain 1hr
in
rain 24hr
in
rain mn
in
humidity
%
barometer
mb
20260504100144 61 237 10.0 17.0 0.00 0.00 0.00 23 990.6
20260504081637 61 192 9.0 19.0 0.00 0.00 0.00 23 992.6
20260504081112 61 179 9.0 18.0 0.00 0.00 0.00 23 992.8
20260504080546 61 219 9.0 20.0 0.00 0.00 0.00 24 993.0
20260504070322 60 219 6.0 18.0 0.00 0.00 0.00 26 994.5
20260504060128 59 238 6.0 16.0 0.00 0.00 0.00 25 996.4
20260504050444 60 205 6.0 12.0 0.00 0.00 0.00 23 997.3
20260504045945 60 221 6.0 11.0 0.00 0.00 0.00 23 997.5
20260504045417 60 227 6.0 12.0 0.00 0.00 0.00 23 997.6
20260504044852 60 191 7.0 15.0 0.00 0.00 0.00 23 997.7
20260504044326 60 231 6.0 15.0 0.00 0.00 0.00 23 997.9
20260504043807 59 239 5.0 10.0 0.00 0.00 0.00 23 998.1
20260504043309 59 198 5.0 10.0 0.00 0.00 0.00 24 998.2
20260504042745 59 232 4.0 10.0 0.00 0.00 0.00 23 998.3
20260504042246 59 231 5.0 11.0 0.00 0.00 0.00 23 998.4
20260504041727 60 234 5.0 11.0 0.00 0.00 0.00 23 998.5
20260504041227 59 226 4.0 9.0 0.00 0.00 0.00 23 998.6
20260504040702 59 222 4.0 8.0 0.00 0.00 0.00 23 998.9
20260504040411 60 217 4.0 9.0 0.00 0.00 0.00 23 999.0
20260504035639 59 234 4.0 9.0 0.00 0.00 0.00 23 999.1
20260504035119 59 219 4.0 8.0 0.00 0.00 0.00 24 999.4
20260504034851 59 238 3.0 8.0 0.00 0.00 0.00 24 999.5
20260504034102 59 210 2.0 5.0 0.00 0.00 0.00 24 999.6
20260504033835 59 201 1.0 5.0 0.00 0.00 0.00 24 999.7
20260504033041 59 208 0.0 2.0 0.00 0.00 0.00 23 999.9
20260504032534 60 208 1.0 3.0 0.00 0.00 0.00 22 1000.0
20260504032032 60 209 1.0 5.0 0.00 0.00 0.00 22 1000.2
20260504031516 60 209 2.0 5.0 0.00 0.00 0.00 22 1000.2
20260504031015 60 217 1.0 4.0 0.00 0.00 0.00 21 1000.4
20260504030513 60 196 2.0 7.0 0.00 0.00 0.00 22 1000.4
20260504025955 61 228 2.0 7.0 0.00 0.00 0.00 21 1000.6
20260504025454 61 207 2.0 8.0 0.00 0.00 0.00 21 1000.6
20260504024952 61 199 2.0 8.0 0.00 0.00 0.00 20 1000.7
20260504024721 61 198 2.0 5.0 0.00 0.00 0.00 20 1000.7
20260504024158 61 198 3.0 5.0 0.00 0.00 0.00 20 1000.9
20260504023402 62 223 3.0 7.0 0.00 0.00 0.00 20 1000.8
20260504022835 62 252 3.0 7.0 0.00 0.00 0.00 20 1000.9
20260504022812 62 229 3.0 7.0 0.00 0.00 0.00 19 1001.0
20260504022427 62 258 4.0 7.0 0.00 0.00 0.00 19 1001.1
20260504021241 61 220 3.0 6.0 0.00 0.00 0.00 20 1001.2
20260504020716 61 246 3.0 5.0 0.00 0.00 0.00 20 1001.3
20260504020150 60 261 2.0 4.0 0.00 0.00 0.00 21 1001.4
20260504015856 60 263 3.0 6.0 0.00 0.00 0.00 24 1001.4
20260504015057 60 275 3.0 4.0 0.00 0.00 0.00 21 1001.5
20260504014531 61 278 3.0 6.0 0.00 0.00 0.00 20 1001.6
20260504014028 62 270 3.0 6.0 0.00 0.00 0.00 19 1001.7
20260504013737 62 269 3.0 4.0 0.00 0.00 0.00 19 1001.8
20260504012959 62 259 3.0 4.0 0.00 0.00 0.00 20 1001.8
20260504012457 62 248 2.0 4.0 0.00 0.00 0.00 19 1001.8
20260504011928 63 248 2.0 4.0 0.00 0.00 0.00 17 1001.9
20260504011403 64 247 2.0 3.0 0.00 0.00 0.00 17 1002.0
20260504010901 64 247 2.0 3.0 0.00 0.00 0.00 17 1002.0
20260504010358 65 246 1.0 3.0 0.00 0.00 0.00 16 1002.1
20260504005847 65 250 2.0 6.0 0.00 0.00 0.00 16 1002.1
20260504005615 65 250 2.0 6.0 0.00 0.00 0.00 15 1002.2
20260504004845 65 219 2.0 7.0 0.00 0.00 0.00 15 1002.3
20260504004324 65 219 2.0 6.0 0.00 0.00 0.00 15 1002.4
20260504003814 65 234 1.0 6.0 0.00 0.00 0.00 15 1002.3
20260504003310 66 235 2.0 8.0 0.00 0.00 0.00 16 1002.5
20260504002810 66 235 3.0 8.0 0.00 0.00 0.00 15 1002.4
20260504002242 66 235 2.0 4.0 0.00 0.00 0.00 15 1002.6
20260504001715 66 241 3.0 9.0 0.00 0.00 0.00 15 1002.6
20260504001212 66 250 4.0 11.0 0.00 0.00 0.00 15 1002.6
20260504000710 66 271 3.0 11.0 0.00 0.00 0.00 15 1002.7
20260504000142 66 232 5.0 10.0 0.00 0.00 0.00 15 1002.8
20260503235640 66 297 6.0 16.0 0.00 0.00 0.00 15 1002.8
20260503235114 66 248 6.0 16.0 0.00 0.00 0.00 14 1002.6
20260503234547 67 305 4.0 14.0 0.00 0.00 0.00 14 1002.7
20260503234044 67 342 3.0 7.0 0.00 0.00 0.00 14 1002.7
20260503233516 67 333 3.0 14.0 0.00 0.00 0.00 14 1002.7
20260503233014 67 238 4.0 14.0 0.00 0.00 0.00 14 1002.8
20260503232719 67 270 7.0 16.0 0.00 0.00 0.00 14 1002.9
20260503232424 67 310 8.0 16.0 0.00 0.00 0.00 13 1002.9
20260503232027 67 325 8.0 13.0 0.00 0.00 0.00 14 1003.0
20260503230914 67 319 7.0 16.0 0.00 0.00 0.00 13 1003.1
20260503230411 67 279 6.0 14.0 0.00 0.00 0.00 13 1003.3
20260503225844 66 238 7.0 18.0 0.00 0.00 0.00 14 1003.5
20260503225550 66 277 7.0 18.0 0.00 0.00 0.00 14 1003.5
20260503224751 67 286 7.0 23.0 0.00 0.00 0.00 14 1003.5
20260503224224 67 306 7.0 23.0 0.00 0.00 0.00 13 1003.6
20260503223721 68 277 6.0 12.0 0.00 0.00 0.00 14 1003.3
20260503223218 68 217 6.0 17.0 0.00 0.00 0.00 15 1003.5
20260503222650 67 342 6.0 17.0 0.00 0.00 0.00 15 1003.5
20260503222145 67 280 6.0 15.0 0.00 0.00 0.00 14 1003.5
20260503221643 68 274 5.0 15.0 0.00 0.00 0.00 14 1003.6
20260503221140 67 191 7.0 18.0 0.00 0.00 0.00 13 1003.5
20260503220616 67 300 8.0 18.0 0.00 0.00 0.00 14 1003.5
20260503220101 67 355 8.0 15.0 0.00 0.00 0.00 14 1003.5
20260503215600 67 287 9.0 20.0 0.00 0.00 0.00 13 1003.6
20260503215059 67 244 7.0 20.0 0.00 0.00 0.00 15 1003.6
20260503214802 67 238 6.0 17.0 0.00 0.00 0.00 16 1003.6
20260503214259 67 245 7.0 18.0 0.00 0.00 0.00 15 1003.7
20260503213501 66 294 9.0 18.0 0.00 0.00 0.00 15 1003.7
20260503212959 67 299 9.0 16.0 0.00 0.00 0.00 15 1003.7
20260503212432 67 286 7.0 16.0 0.00 0.00 0.00 15 1003.8
20260503211915 67 324 7.0 17.0 0.00 0.00 0.00 16 1003.8
20260503211418 66 276 7.0 17.0 0.00 0.00 0.00 16 1003.9
20260503210850 67 321 6.0 15.0 0.00 0.00 0.00 15 1004.0
20260503210349 66 347 7.0 19.0 0.00 0.00 0.00 14 1004.0
20260503205824 66 261 9.0 21.0 0.00 0.00 0.00 16 1004.0
20260503205256 65 252 9.0 21.0 0.00 0.00 0.00 16 1004.0
20260503204754 65 316 8.0 18.0 0.00 0.00 0.00 15 1004.2
20260503204228 65 252 8.0 18.0 0.00 0.00 0.00 16 1004.3
20260503203702 66 266 9.0 18.0 0.00 0.00 0.00 16 1004.4
20260503203202 65 242 9.0 16.0 0.00 0.00 0.00 16 1004.2
20260503202636 65 279 9.0 22.0 0.00 0.00 0.00 14 1004.6
20260503202134 65 333 8.0 22.0 0.00 0.00 0.00 15 1004.7
20260503201611 66 215 6.0 18.0 0.00 0.00 0.00 14 1004.6
20260503201110 66 96 5.0 13.0 0.00 0.00 0.00 15 1004.6
20260503200843 65 231 6.0 14.0 0.00 0.00 0.00 15 1004.5
20260503200110 65 293 7.0 18.0 0.00 0.00 0.00 15 1004.7
20260503195611 65 45 9.0 18.0 0.00 0.00 0.00 15 1004.7
20260503195112 64 297 9.0 21.0 0.00 0.00 0.00 14 1004.8
20260503194823 65 230 7.0 21.0 0.00 0.00 0.00 13 1004.7
20260503194050 65 10 7.0 15.0 0.00 0.00 0.00 14 1004.9
20260503193552 64 321 8.0 20.0 0.00 0.00 0.00 14 1005.1
20260503193027 64 317 10.0 22.0 0.00 0.00 0.00 13 1005.2
20260503192519 64 268 9.0 22.0 0.00 0.00 0.00 13 1005.1
20260503191955 64 239 9.0 22.0 0.00 0.00 0.00 12 1005.2
20260503191458 63 260 9.0 20.0 0.00 0.00 0.00 11 1005.4
20260503191226 64 261 9.0 21.0 0.00 0.00 0.00 10 1005.3
20260503190457 63 249 11.0 21.0 0.00 0.00 0.00 10 1005.2
20260503185937 63 291 10.0 23.0 0.00 0.00 0.00 8 1005.4
20260503185912 63 275 8.0 21.0 0.00 0.00 0.00 9 1005.5
20260503185119 63 236 9.0 22.0 0.00 0.00 0.00 10 1005.5
20260503184350 63 335 10.0 22.0 0.00 0.00 0.00 11 1005.6
20260503183850 63 328 9.0 22.0 0.00 0.00 0.00 10 1005.8
20260503183329 62 325 11.0 22.0 0.00 0.00 0.00 11 1005.7
20260503183042 62 188 11.0 20.0 0.00 0.00 0.00 8 1005.6
20260503182310 63 287 9.0 19.0 0.00 0.00 0.00 10 1005.7
20260503181809 63 292 9.0 19.0 0.00 0.00 0.00 10 1005.7
20260503181541 62 259 9.0 19.0 0.00 0.00 0.00 12 1005.9
20260503180752 62 300 10.0 20.0 0.00 0.00 0.00 11 1006.0
20260503180251 62 256 9.0 20.0 0.00 0.00 0.00 11 1006.0
20260503175729 63 268 8.0 19.0 0.00 0.00 0.00 10 1006.0
20260503175457 62 244 9.0 19.0 0.00 0.00 0.00 11 1006.0
20260503175048 63 309 7.0 16.0 0.00 0.00 0.00 11 1006.1
20260503174940 63 101 9.0 23.0 0.00 0.00 0.00 9 1006.1
20260503173647 62 264 9.0 23.0 0.00 0.00 0.00 9 1006.0
20260503173122 62 138 7.0 20.0 0.00 0.00 0.00 12 1006.0
20260503172557 62 273 7.0 20.0 0.00 0.00 0.00 11 1005.9
20260503172050 62 30 9.0 18.0 0.00 0.00 0.00 12 1006.1
20260503171524 62 284 9.0 18.0 0.00 0.00 0.00 11 1006.0
20260503171016 62 296 7.0 18.0 0.00 0.00 0.00 14 1006.2
20260503170451 62 258 7.0 24.0 0.00 0.00 0.00 16 1006.0
20260503150459 59 242 9.0 16.0 0.00 0.00 0.00 38 1005.8
20260503140222 59 225 5.0 11.0 0.00 0.00 0.00 42 1005.9
20260503131020 46 162 2.0 6.0 0.00 0.00 0.00 50 1006.1
20260503130953 46 154 2.0 6.0 0.00 0.00 0.00 50 1006.2
20260503120203 42 209 0.0 0.0 0.00 0.00 0.00 59 1006.2
20260503110459 39 223 0.0 2.0 0.00 0.00 0.00 67 1005.7